[[{"header":{"parameterUnit":"m.s-1","parameterCategory":1,"la1":30.2991,"la2":30.254,"lo1":-89.0895,"lo2":-89.0444,"dy":0.0017,"dx":0.0017,"nx":28,"ny":28,"refTime":"2023-09-12T03:00:00:Z","depth":0,"parameterNumber":2,"parameterNumberName":"U-component_of_WINDS"},"data":[0,0,0,0,0,0,0,0,0,0,0,0,0,0,0,0,0,0,0,0,0,0,0,0,0,0,0,0,0,0,0,0,0,0,0,0,0,0,0,0,0,0,0,0,0,0,0,0,0,0,0,0,0,0,0,0,0,0,0.6843,0.6842,0,0.681,0.6809,0.6809,0.6806,0.6806,0.6807,0.6807,0.6773,0.6772,0.6771,0,0,0,0,0,0,0,0,0,0,0,0,0,0.6903,0.6902,0.6843,0.6842,0.6842,0.681,0.6809,0.6809,0.6806,0.6806,0.6807,0.6807,0.6774,0.6772,0.6771,0,0,0,0,0,0,0,0,0,0,0,0,0,0.6874,0.6902,0.6843,0.6836,0.6836,0.681,0.6809,0.6809,0.6806,0.6806,0.6807,0.6807,0.6774,0.6772,0.677,0.6749,0,0,0.6765,0.6764,0,0,0,0,0,0,0,0,0.6876,0.6872,0.6838,0.6837,0.6836,0.6812,0.6818,0.6789,0.6806,0.6817,0.6807,0.6808,0.6786,0.6783,0.6776,0.6747,0.6746,0.6765,0.6764,0.6763,0.6762,0,0,0,0,0,0,0,0.6878,0.6873,0.683,0.6837,0.6836,0.6835,0.6832,0.6813,0.6799,0.6816,0.6816,0.6812,0.6785,0.6777,0.6775,0.6745,0.6765,0.6763,0.6762,0.6761,0.6697,0.6697,0,0,0,0,0,0,0.6881,0.6875,0.6831,0.6829,0.6857,0.6834,0.683,0.6819,0.6799,0.6797,0.6812,0.6812,0.678,0.6777,0.6774,0.6747,0.6763,0.6761,0.676,0.6698,0.6697,0.6697,0,0,0,0,0,0,0.6882,0.6877,0.6832,0.6852,0.6846,0.6832,0.6821,0.6818,0.6811,0.6796,0.6793,0.6806,0.6781,0.6776,0.6755,0.6746,0.676,0.6759,0.6699,0.6698,0.6697,0.6694,0,0,0,0,0,0,0.6884,0.6877,0.6869,0.6852,0.6845,0.6814,0.682,0.6817,0.6807,0.6808,0.679,0.6787,0.6781,0.6758,0.6753,0.6744,0.6757,0.6699,0.6698,0.6697,0.6695,0.6693,0.6691,0,0,0,0,0,0.6886,0.6869,0.6869,0.6863,0.6834,0.6813,0.681,0.6802,0.6807,0.6798,0.6789,0.6788,0.6748,0.6756,0.675,0.674,0.67,0.6699,0.6697,0.6695,0.6693,0.6691,0,0,0,0,0,0,0.6886,0.6867,0.6866,0.6843,0.683,0.6813,0.6802,0.68,0.6785,0.6786,0.6778,0.6774,0.6753,0.6744,0.6754,0.6718,0.6724,0.6722,0.6725,0.6722,0.6721,0.6723,0.6756,0,0,0,0,0,0.6884,0.6868,0.6852,0.6834,0.6827,0.6816,0.6806,0.6802,0.6788,0.6782,0.6771,0.6757,0.6742,0.6732,0.6716,0.6693,0.6689,0.6684,0.6682,0.6681,0.6679,0.6666,0.6664,0.6692,0.6692,0.6692,0,0,0.6878,0.6866,0.6856,0.6833,0.6823,0.6807,0.6811,0.6794,0.6783,0.678,0.6759,0.675,0.6735,0.6712,0.6702,0.6705,0.667,0.6679,0.6678,0.6677,0.6665,0.6662,0.666,0.6691,0.6691,0.6691,0,0,0.686,0.6849,0.6832,0.6821,0.6805,0.6798,0.6794,0.6777,0.6771,0.675,0.6748,0.6734,0.6707,0.6696,0.6686,0.6664,0.6663,0.6659,0.6651,0.6639,0.6637,0.6635,0.6627,0.6624,0.6658,0.6657,0.6657,0,0.6855,0.6832,0.6824,0.6807,0.6797,0.6794,0.6777,0.6767,0.6746,0.674,0.6743,0.6709,0.6698,0.6674,0.6668,0.6661,0.6656,0.6662,0.6638,0.6635,0.6633,0.6626,0.6623,0.6657,0.6657,0.6657,0.6657,0,0.6827,0.681,0.6799,0.6779,0.6768,0.6751,0.6741,0.6731,0.6727,0.6719,0.6698,0.6685,0.6667,0.6661,0.6657,0.6636,0.6638,0.6639,0.6645,0.6631,0.6623,0.6621,0.6657,0.6657,0.6657,0.6657,0,0,0.6808,0.6784,0.678,0.6771,0.6753,0.674,0.6724,0.6706,0.6697,0.6683,0.6669,0.6646,0.6648,0.6637,0.6632,0.6622,0.6605,0.6625,0.6624,0.6622,0.6581,0.658,0.6577,0.6604,0.6604,0.6603,0.6582,0,0.6788,0.6758,0.6751,0.6725,0.671,0.6707,0.6692,0.6679,0.6672,0.6658,0.6649,0.6633,0.6636,0.663,0.6619,0.661,0.6597,0.6611,0.6591,0.6591,0.6596,0.6573,0.6572,0.6553,0.6579,0.6579,0.6579,0,0.6761,0.6746,0.6719,0.6703,0.6697,0.6684,0.6667,0.6654,0.6639,0.6634,0.6623,0.6619,0.6601,0.6608,0.6584,0.6593,0.6585,0.6579,0.6578,0.6576,0.6584,0.6571,0.6547,0.6544,0.6574,0.6574,0.6575,0,0.675,0.6724,0.6704,0.6697,0.6677,0.6668,0.666,0.6646,0.6636,0.6621,0.6615,0.6598,0.6589,0.6577,0.6569,0.6574,0.6545,0.6551,0.6541,0.6541,0.6535,0.6535,0.6509,0.6529,0.6529,0.6529,0.6529,0,0.6729,0.6713,0.6699,0.6688,0.6669,0.6661,0.6643,0.6634,0.6622,0.6608,0.6604,0.6591,0.6581,0.6567,0.656,0.6542,0.6537,0.6533,0.6532,0.6534,0.6534,0.6528,0.6529,0.6528,0.6528,0.6529,0.6529,0,0.6714,0.6705,0.6683,0.6667,0.6662,0.6649,0.6635,0.6623,0.6615,0.6598,0.6594,0.6581,0.6564,0.6555,0.6534,0.6529,0.6508,0.6507,0.6513,0.6512,0.6503,0.6504,0.6472,0.6467,0.649,0.649,0.6489,0,0.6702,0.6689,0.6671,0.6662,0.6653,0.6638,0.6628,0.6619,0.6608,0.6591,0.6581,0.6564,0.655,0.6523,0.6512,0.6496,0.6495,0.6485,0.6492,0.6495,0.6495,0.6496,0.6495,0.6484,0.6483,0.6483,0.6483,0,0.668,0.6676,0.6662,0.6645,0.6633,0.662,0.6607,0.6599,0.6588,0.6577,0.656,0.6549,0.6527,0.651,0.6493,0.6484,0.6482,0.6481,0.6477,0.648,0.6484,0.6482,0.651,0.6482,0.6482,0.6482,0.6482,0.6482,0.6666,0.6655,0.6641,0.6625,0.6614,0.6602,0.659,0.658,0.6566,0.6548,0.6543,0.6525,0.6511,0.6488,0.6478,0.6464,0.6466,0.6461,0.646,0.6459,0.6459,0.6486,0.6461,0.6461,0.6461,0.6461,0.6461,0,0.6645,0.6636,0.6621,0.6603,0.659,0.6589,0.6574,0.6564,0.6548,0.6535,0.6521,0.6501,0.6485,0.6472,0.6456,0.6446,0.6445,0.6442,0.6443,0.6441,0.6458,0.6463,0.6444,0.6444,0.6444,0.6444,0.6444,0.6444,0.6633,0.6614,0.6608,0.6583,0.6574,0.6556,0.6548,0.6537,0.6526,0.6504,0.6491,0.6483,0.647,0.6452,0.6437,0.6434,0.6428,0.6425,0.6422,0.6438,0.644,0.6442,0.6446,0.6424,0.6424,0.6406,0.6406,0.6406]},{"header":{"parameterUnit":"m.s-1","parameterCategory":1,"la1":30.2991,"la2":30.254,"lo1":-89.0895,"lo2":-89.0444,"dy":0.0017,"dx":0.0017,"nx":28,"ny":28,"refTime":"2023-09-12T03:00:00:Z","depth":0,"parameterNumber":3,"parameterNumberName":"V-component_of_WINDS"},"data":[0,0,0,0,0,0,0,0,0,0,0,0,0,0,0,0,0,0,0,0,0,0,0,0,0,0,0,0,0,0,0,0,0,0,0,0,0,0,0,0,0,0,0,0,0,0,0,0,0,0,0,0,0,0,0,0,0,0,0.8675,0.8675,0,0.8638,0.8638,0.8637,0.8653,0.8654,0.8654,0.8655,0.8615,0.8613,0.8611,0,0,0,0,0,0,0,0,0,0,0,0,0,0.8754,0.8752,0.8675,0.8675,0.8674,0.8638,0.8638,0.8637,0.8652,0.8654,0.8655,0.8656,0.8616,0.8614,0.8611,0,0,0,0,0,0,0,0,0,0,0,0,0,0.8719,0.8752,0.8675,0.8677,0.8677,0.8638,0.8638,0.8637,0.8652,0.8654,0.8655,0.8656,0.8617,0.8614,0.8611,0.8567,0,0,0.8602,0.8601,0,0,0,0,0,0,0,0,0.8721,0.8716,0.8678,0.8677,0.8677,0.8651,0.8651,0.8614,0.8652,0.8662,0.8655,0.8657,0.8626,0.8622,0.8613,0.8565,0.8563,0.8602,0.86,0.8599,0.8598,0,0,0,0,0,0,0,0.8723,0.8717,0.866,0.8677,0.8677,0.8679,0.8675,0.8644,0.8637,0.8661,0.8662,0.8658,0.8626,0.8615,0.8612,0.8563,0.8602,0.86,0.8598,0.8597,0.8472,0.8471,0,0,0,0,0,0,0.8726,0.8719,0.8662,0.8659,0.8703,0.8676,0.8672,0.8658,0.8637,0.8635,0.8656,0.8658,0.8619,0.8615,0.861,0.8554,0.8599,0.8597,0.8595,0.8474,0.8472,0.847,0,0,0,0,0,0,0.8728,0.8721,0.8663,0.869,0.8682,0.8674,0.8658,0.8657,0.8646,0.8634,0.8632,0.8647,0.862,0.8614,0.8577,0.8553,0.8595,0.8593,0.8476,0.8473,0.8471,0.8442,0,0,0,0,0,0,0.873,0.8721,0.8706,0.8689,0.8681,0.8631,0.8656,0.8655,0.8641,0.8644,0.8624,0.8623,0.8621,0.8581,0.8574,0.855,0.859,0.8478,0.8475,0.8472,0.8445,0.8439,0.8434,0,0,0,0,0,0.8733,0.87,0.8705,0.8698,0.8661,0.863,0.8625,0.8625,0.864,0.8622,0.8614,0.8623,0.8557,0.8577,0.8569,0.8544,0.8479,0.8476,0.8472,0.8448,0.8441,0.8434,0,0,0,0,0,0,0.8714,0.8698,0.8703,0.8664,0.8648,0.8633,0.8612,0.8618,0.8597,0.8599,0.8599,0.8594,0.8554,0.8546,0.8568,0.8498,0.852,0.8515,0.8504,0.8497,0.8492,0.8493,0.8588,0,0,0,0,0,0.8705,0.8682,0.8669,0.8635,0.8627,0.8621,0.8607,0.8608,0.8591,0.8584,0.8573,0.8556,0.853,0.8514,0.8491,0.8445,0.8439,0.8423,0.8418,0.8413,0.8408,0.8378,0.837,0.8458,0.8458,0.8458,0,0,0.8687,0.8675,0.8661,0.8631,0.8619,0.8593,0.8615,0.8588,0.8567,0.858,0.8542,0.8534,0.8514,0.8471,0.8451,0.8462,0.8382,0.8409,0.8405,0.8402,0.8374,0.8365,0.8358,0.8456,0.8456,0.8457,0,0,0.8639,0.863,0.8599,0.8586,0.8567,0.8562,0.8555,0.8537,0.8532,0.8495,0.8502,0.8478,0.8436,0.842,0.8406,0.835,0.8355,0.8342,0.8312,0.8283,0.8276,0.827,0.8245,0.8237,0.8337,0.8337,0.8337,0,0.8618,0.8581,0.8582,0.8553,0.8538,0.8548,0.8515,0.8502,0.8476,0.8465,0.8478,0.8422,0.841,0.8361,0.8347,0.8337,0.8326,0.8343,0.8277,0.8271,0.8265,0.8242,0.8233,0.8335,0.8336,0.8336,0.8336,0,0.8554,0.8527,0.8505,0.8478,0.8461,0.8431,0.8425,0.8408,0.8409,0.8403,0.8362,0.8348,0.8319,0.8309,0.8311,0.8259,0.8265,0.8278,0.83,0.8255,0.8232,0.8224,0.8333,0.8333,0.8334,0.8334,0,0,0.8493,0.8467,0.8458,0.8445,0.8423,0.8402,0.837,0.8343,0.8325,0.8307,0.8278,0.8241,0.8251,0.8235,0.8235,0.8211,0.8161,0.8226,0.8225,0.8211,0.8098,0.8086,0.8076,0.8166,0.8165,0.8163,0.8098,0,0.8441,0.8386,0.8385,0.8334,0.8307,0.8315,0.8287,0.8269,0.8261,0.8236,0.8228,0.8199,0.8217,0.8207,0.8184,0.8173,0.8138,0.8178,0.8136,0.8134,0.8137,0.8066,0.8054,0.7993,0.809,0.8089,0.8088,0,0.8374,0.8351,0.8297,0.8276,0.8265,0.8239,0.8212,0.8189,0.8168,0.8164,0.8145,0.8148,0.8112,0.8137,0.8086,0.8113,0.8096,0.8088,0.8085,0.8079,0.8106,0.8053,0.7975,0.7964,0.8075,0.8076,0.8077,0,0.833,0.8287,0.8248,0.8236,0.8212,0.8193,0.8182,0.8163,0.8145,0.8121,0.8108,0.8081,0.8064,0.8041,0.8035,0.8055,0.7983,0.8008,0.7975,0.7975,0.7958,0.7958,0.7871,0.7953,0.7953,0.7953,0.7953,0,0.827,0.8235,0.8227,0.8203,0.8163,0.8161,0.8121,0.8111,0.8093,0.8065,0.8071,0.8044,0.804,0.8011,0.8006,0.7962,0.7955,0.7949,0.7947,0.7946,0.7946,0.7932,0.7935,0.795,0.7951,0.7951,0.7952,0,0.8214,0.8207,0.8164,0.8144,0.8138,0.8109,0.8091,0.8066,0.8058,0.8022,0.8014,0.8001,0.7967,0.796,0.792,0.7916,0.7862,0.7867,0.7869,0.7868,0.7834,0.7836,0.7732,0.7716,0.7812,0.7811,0.781,0,0.8174,0.8147,0.8124,0.8105,0.8093,0.8064,0.8045,0.8042,0.8022,0.7994,0.7971,0.7938,0.7911,0.7856,0.7842,0.781,0.7811,0.7777,0.7806,0.7805,0.7806,0.7806,0.7801,0.7771,0.777,0.7769,0.7768,0,0.8104,0.8101,0.8075,0.8045,0.8023,0.8,0.7978,0.7962,0.7956,0.7932,0.7897,0.7876,0.7834,0.7799,0.7767,0.7753,0.7757,0.7759,0.7749,0.7746,0.7746,0.7741,0.785,0.7761,0.7762,0.7762,0.7763,0.7763,0.8052,0.8027,0.8005,0.7974,0.7957,0.7935,0.791,0.7898,0.787,0.7835,0.7835,0.7795,0.7772,0.7728,0.7713,0.768,0.769,0.7677,0.7673,0.7668,0.7663,0.7755,0.7675,0.7675,0.7675,0.7675,0.7675,0,0.7978,0.7964,0.7935,0.7904,0.7878,0.7886,0.7862,0.7839,0.7805,0.7783,0.7755,0.7713,0.7678,0.7661,0.7626,0.7603,0.7604,0.7594,0.7594,0.7589,0.7658,0.7668,0.7593,0.7593,0.7593,0.7593,0.7593,0.7593,0.7936,0.7893,0.7887,0.7834,0.782,0.7781,0.7766,0.7745,0.7727,0.7679,0.765,0.764,0.7618,0.7581,0.7549,0.7545,0.7529,0.7517,0.7513,0.7577,0.7585,0.7593,0.7602,0.7515,0.7515,0.7447,0.7446,0.7445]}]]